Tracking 29892 objects as of 21-Nov-2024
HD Live streaming from Space Station
objects crossing your sky now

CZ-6A DEB

Track CZ-6A DEB now!
10-day predictions


NORAD ID: 54323
Int'l Code: 2022-151BS
Perigee: 832.4 km
Apogee: 909.9 km
Inclination: 98.8 °
Period: 102.2 minutes
Semi major axis: 7242 km
RCS: Unknown
Launch date: November 11, 2022
Source: People's Republic of China (PRC)
Launch site: Taiyaun Space Center, China (TSC)

Note: This is SATELLITE DEBRIS
Your satellite tracking list
Your tracking list is empty




NASA's NSSDC Master Catalog

Two Line Element Set (TLE):
1 54323U 22151BS  24325.92102520  .00001607  00000-0  94626-3 0  9999
2 54323  98.8231 322.8574 0053523 146.6464 213.8097 14.08644699103533
Source of the keplerian elements: AFSPC